weather.gov     
National Weather Service

Regional Weather Roundup
NWS Homepage
This page is being discontinued on March 12, 2014.
The same data is available at this site. Please update your bookmarks.
Thank you, and we apologize for the inconvenience.
Please send an email to SR-SRH.Webmaster@noaa.gov with any concerns.


Current Version
Previous Version:    01  02  03  04  05  06  07  08  09  10  11  12  13  14  15  16  17  18  19  20  21  22  23  24  25  26  27  28  29  30  
   31  32  33  34  35  36  37  38  39  40  41  42  43  44  45  46  47  48  49  50  51  52  53  
[Printable]
780
ASUS43 KTOP 230508
RWRKS

WEATHER ROUNDUP FOR KANSAS
NATIONAL WEATHER SERVICE GOODLAND KS
1100 PM CST MON DEC 22 2014

NOTE:  "FAIR" INDICATES FEW OR NO CLOUDS BELOW 12,000 FEET WITH NO
SIGNIFICANT WEATHER AND/OR OBSTRUCTIONS TO VISIBILITY.

KSZ001>006-013>018-027>032-041>047-230600-
NORTHWEST KANSAS

CITY           SKY/WX    TMP DP  RH WIND       PRES   REMARKS
GOODLAND       CLEAR     34  23  64 NW26G33   29.72R WCI  21
HAYS           CLEAR     37  21  52 W18G24    29.65R WCI  27
HILL CITY      PTCLDY    38  25  59 NW16      29.66R WCI  29
RUSSELL        PTCLDY    39  26  59 W18       29.62R WCI  30
$$

KSZ061>065-074>080-084>089-230600-
SOUTHWEST KANSAS

CITY           SKY/WX    TMP DP  RH WIND       PRES   REMARKS
DODGE CITY     CLEAR     34  23  64 NW13      29.73R WCI  25
ELKHART          N/A     36  23  59 NW10        N/A  WCI  28
GARDEN CITY    PTCLDY    37  24  59 NW17      29.75R WCI  27
GREAT BEND     CLEAR     37  25  60 W20       29.67R WCI  27
LIBERAL        CLEAR     32  21  64 NW12      29.80R WCI  23
PRATT          CLEAR     32  28  86 W9        29.69S
$$

KSZ066>073-081>083-090>101-230600-
SOUTHEAST KANSAS

CITY           SKY/WX    TMP DP  RH WIND       PRES   REMARKS
CHANUTE        PTCLDY    39  36  89 SW9       29.63R
COFFEYVILLE    CLEAR     39  36  89 CALM      29.64F
HUTCHINSON     CLEAR     37  28  70 W8        29.65R
MEDICINE LODGE   N/A     36  26  67 NW7       29.69S
NEWTON         PTCLDY    37  27  65 W9        29.65S
PARSONS        PTCLDY    39  37  92 CALM      29.66S
WICHITA INTL   PTCLDY    42  29  59 W13       29.65R
WICHITA JABRA  PTCLDY    41  31  67 W10       29.65R
WICHITA MCCONL PTCLDY    41  31  68 W5        29.66R
WINFIELD       PTCLDY    38  34  85 W7        29.67R
$$

KSZ007>012-019>026-033>040-048>060-102>105-230600-
NORTHEAST KANSAS

CITY           SKY/WX    TMP DP  RH WIND       PRES   REMARKS
CONCORDIA      CLOUDY    41  33  73 NW10      29.59R
EMPORIA        CLOUDY    37  33  85 SW8       29.62R
LAWRENCE       PTCLDY    39  33  79 SW7       29.58R
MANHATTAN      CLOUDY    42  33  70 W6        29.58R
MARYSVILLE     PTCLDY    37  32  81 W9        29.55R
OLATHE IND     CLEAR     40  35  83 SW12      29.58R WCI  33
OLATHE EXE     CLEAR     40  36  86 W8        29.57R
SALINA         PTCLDY    41  28  60 W15       29.62R
TOPEKA BILLARD CLOUDY    43  34  70 W7        29.58R
TOPEKA FORBES  PTCLDY    37  32  82 SW10      29.58R WCI  30
$$




U.S. Dept. of Commerce
NOAA National Weather Service
1325 East West Highway
Silver Spring, MD 20910
E-mail: w-nws.webmaster@noaa.gov
Page last modified: May 16, 2007
NATIONAL WEATHER SERVICE: for Safety, for Work, for Fun - FOR LIFE